Date,TemperatureHighF,TemperatureAvgF,TemperatureLowF,DewpointHighF,DewpointAvgF,DewpointLowF,HumidityHigh,HumidityAvg,HumidityLow,PressureMaxIn,PressureMinIn,WindSpeedMaxMPH,WindSpeedAvgMPH,GustSpeedMaxMPH,PrecipitationSumIn
2012-1-1,70.0,60.5,44.0,68.0,45.2,31.0,98,61,29,0.00,40.00,12,8,23,0.00
2012-1-2,60.0,45.7,36.0,32.0,26.2,20.0,78,51,21,0.00,40.00,10,6,21,0.00
2012-1-3,57.0,39.4,28.0,29.0,21.3,11.0,83,54,17,0.00,40.00,6,5,12,0.00
2012-1-4,73.0,50.9,33.0,52.0,42.9,29.0,95,77,45,0.00,40.00,9,4,18,0.00
2012-1-5,74.0,56.9,44.0,56.0,49.4,43.0,97,79,45,0.00,40.00,8,4,13,0.00
2012-1-6,74.0,63.0,55.0,64.0,58.3,54.0,100,86,55,0.00,40.00,12,6,23,0.00
2012-1-7,76.0,63.0,54.0,65.0,59.2,54.0,99,89,60,0.00,40.00,8,5,15,0.00
2012-1-8,76.0,65.3,58.0,68.0,62.2,58.0,99,90,66,0.00,40.00,8,4,15,0.00
2012-1-9,67.0,63.5,59.0,66.0,63.3,59.0,99,99,97,0.00,40.00,10,6,19,2.03
2012-1-10,62.0,53.2,48.0,62.0,50.5,42.0,99,91,81,0.00,40.00,9,6,18,0.12
2012-1-11,69.0,53.5,42.0,47.0,42.2,40.0,95,70,36,0.00,40.00,8,6,16,0.01
2012-1-12,54.0,45.7,35.0,49.0,27.3,14.0,93,52,23,0.00,40.00,12,8,26,0.00
2012-1-13,57.0,39.3,29.0,30.0,20.6,14.0,83,53,19,0.00,40.00,8,4,16,0.00
2012-1-14,65.0,44.5,28.0,37.0,27.8,23.0,94,60,21,0.00,40.00,8,6,18,0.00
2012-1-15,68.0,49.6,29.0,52.0,40.6,28.0,97,74,43,0.00,40.00,10,6,20,0.00
2012-1-16,73.0,64.9,57.0,66.0,60.1,52.0,98,85,70,0.00,40.00,11,8,26,0.00
2012-1-17,75.0,67.2,49.0,70.0,63.4,41.0,97,88,67,0.00,40.00,10,7,20,0.45
2012-1-18,64.0,48.4,38.0,41.0,35.3,31.0,89,64,30,0.00,40.00,8,5,14,0.03
2012-1-19,69.0,56.6,39.0,66.0,53.2,37.0,96,89,76,0.00,40.00,8,5,18,0.00
2012-1-20,78.0,70.3,65.0,68.0,65.9,64.0,97,86,70,0.00,40.00,11,7,23,0.00
2012-1-21,80.0,70.6,62.0,68.0,64.8,59.0,97,83,58,0.00,40.00,9,5,17,0.00
2012-1-22,75.0,70.4,63.0,68.0,66.4,59.0,98,87,75,0.00,40.00,12,8,26,0.00
2012-1-23,70.0,61.7,51.0,67.0,50.8,42.0,98,70,36,0.00,40.00,7,6,15,0.00
2012-1-24,61.0,53.0,46.0,58.0,46.9,39.0,99,81,52,0.00,40.00,9,6,21,0.22
2012-1-25,72.0,63.8,57.0,67.0,62.3,57.0,99,94,79,0.00,40.00,16,8,46,3.44
2012-1-26,58.0,52.8,43.0,57.0,49.1,42.0,99,88,70,0.00,40.00,11,6,29,0.04
2012-1-27,68.0,50.3,36.0,43.0,38.0,31.0,99,71,26,0.00,40.00,10,5,17,0.00
2012-1-28,65.0,51.1,42.0,46.0,37.9,30.0,97,67,28,0.00,40.00,12,6,25,0.00
2012-1-29,66.0,48.7,34.0,37.0,29.5,20.0,85,55,18,0.00,40.00,7,5,12,0.00
2012-1-30,67.0,50.0,34.0,53.0,42.1,32.0,94,77,47,0.00,40.00,9,5,15,0.00
2012-1-31,72.0,62.4,52.0,66.0,59.7,51.0,99,92,73,0.00,40.00,10,5,15,0.52
2012-2-1,76.0,68.1,64.0,71.0,66.7,64.0,99,95,76,0.00,40.00,6,3,15,0.53
2012-2-2,72.0,66.5,64.0,66.0,64.3,63.0,99,93,78,0.00,40.00,5,3,13,0.46
2012-2-3,76.0,69.1,65.0,70.0,66.7,64.0,99,92,66,0.00,40.00,8,6,17,1.49
2012-2-4,69.0,63.1,52.0,68.0,62.3,50.0,99,97,93,0.00,40.00,8,5,26,1.36
2012-2-5,52.0,47.1,42.0,50.0,42.1,40.0,95,83,73,0.00,40.00,8,6,18,0.01
2012-2-6,60.0,47.4,37.0,45.0,40.6,36.0,96,79,52,0.00,40.00,8,4,15,0.00
2012-2-7,61.0,50.6,43.0,47.0,44.6,42.0,98,81,59,0.00,40.00,6,4,12,0.00
2012-2-8,63.0,51.4,43.0,45.0,41.6,36.0,96,72,37,0.00,40.00,10,6,20,0.00
2012-2-9,61.0,49.5,40.0,45.0,40.9,38.0,94,75,44,0.00,40.00,6,4,14,0.00
2012-2-10,55.0,49.3,44.0,52.0,47.8,44.0,99,96,82,0.00,40.00,6,4,12,0.41
2012-2-11,53.0,42.5,34.0,44.0,28.8,18.0,99,63,31,0.00,40.00,12,8,23,0.01
2012-2-12,52.0,39.6,28.0,31.0,17.9,13.0,66,44,22,0.00,40.00,10,6,18,0.00
2012-2-13,52.0,44.5,38.0,52.0,40.7,29.0,99,87,66,0.00,40.00,7,4,15,0.66
2012-2-14,61.0,50.4,46.0,52.0,48.5,45.0,99,94,73,0.00,40.00,6,3,10,0.01
2012-2-15,69.0,58.3,45.0,66.0,57.4,45.0,99,96,87,0.00,40.00,11,5,27,2.06
2012-2-16,64.0,60.5,55.0,62.0,59.0,54.0,100,95,81,0.00,40.00,7,4,13,1.00
2012-2-17,68.0,58.9,51.0,60.0,54.9,50.0,99,88,67,0.00,40.00,7,4,12,0.03
2012-2-18,59.0,54.5,51.0,59.0,54.0,51.0,99,98,95,0.00,40.00,13,6,27,2.14
2012-2-19,64.0,52.1,46.0,52.0,45.2,43.0,96,79,51,0.00,40.00,9,6,22,0.14
2012-2-20,61.0,51.0,41.0,52.0,47.2,41.0,99,88,65,0.00,40.00,8,5,16,0.00
2012-2-21,76.0,62.0,51.0,57.0,53.2,46.0,99,77,43,0.00,40.00,7,4,14,0.02
2012-2-22,81.0,67.6,58.0,67.0,61.7,57.0,99,84,48,0.00,40.00,12,6,25,0.02
2012-2-23,82.0,71.7,65.0,67.0,65.1,63.0,95,81,57,0.00,40.00,13,9,25,0.00
2012-2-24,72.0,60.2,48.0,67.0,35.6,19.0,93,44,21,0.00,40.00,16,9,32,0.00
2012-2-25,60.0,49.2,40.0,40.0,30.9,23.0,86,53,24,0.00,40.00,7,4,13,0.00
2012-2-26,69.0,53.1,37.0,50.0,42.0,36.0,96,70,40,0.00,40.00,7,4,15,0.00
2012-2-27,72.0,60.6,49.0,59.0,54.2,48.0,96,81,57,0.00,40.00,10,6,19,0.00
2012-2-28,74.0,66.1,60.0,68.0,63.3,58.0,98,91,81,0.00,40.00,10,6,22,0.00
2012-2-29,81.0,72.6,67.0,70.0,65.9,63.0,96,81,55,0.00,40.00,11,7,24,0.00
2012-3-1,80.0,71.3,68.0,69.0,67.0,64.0,96,87,60,0.00,40.00,10,5,26,0.00
2012-3-2,80.0,73.2,63.0,69.0,67.1,62.0,97,82,64,0.00,40.00,11,8,26,0.16
2012-3-3,64.0,56.1,46.0,62.0,39.1,22.0,97,57,21,0.00,40.00,11,8,25,0.16
2012-3-4,74.0,55.5,38.0,44.0,33.1,26.0,90,51,17,0.00,40.00,10,6,19,0.00
2012-3-5,79.0,59.3,40.0,51.0,41.0,33.0,97,60,19,0.00,40.00,9,4,16,0.00
2012-3-6,73.0,60.0,45.0,59.0,49.4,44.0,97,72,40,0.00,40.00,15,8,26,0.00
2012-3-7,78.0,68.8,63.0,67.0,60.9,55.0,92,77,51,0.00,40.00,15,9,30,0.06
2012-3-8,75.0,72.1,71.0,71.0,68.2,66.0,95,87,77,0.00,40.00,12,8,30,0.07
2012-3-9,71.0,51.5,46.0,69.0,50.0,45.0,98,95,86,0.00,40.00,12,9,27,0.99
2012-3-10,57.0,52.7,47.0,51.0,45.6,-99.9,97,82,70,0.00,40.00,8,6,15,0.28
2012-3-11,72.0,63.2,55.0,68.0,61.4,51.0,98,95,82,0.00,40.00,15,7,27,0.79
2012-3-12,78.0,69.1,62.0,69.0,66.6,62.0,99,92,69,0.00,40.00,7,5,15,0.05
2012-3-13,79.0,72.2,67.0,70.0,67.3,65.0,98,85,66,0.00,40.00,9,5,19,0.01
2012-3-14,85.0,71.6,66.0,69.0,65.4,62.0,98,84,50,0.00,40.00,9,5,19,0.00
2012-3-15,83.0,70.9,65.0,70.0,65.1,61.0,98,84,48,0.00,40.00,10,5,19,0.00
2012-3-16,82.0,72.3,64.0,69.0,64.2,59.0,98,79,50,0.00,40.00,11,6,21,0.00
2012-3-17,83.0,73.0,66.0,69.0,65.9,62.0,98,81,53,0.00,40.00,11,6,22,0.00
2012-3-18,81.0,73.8,68.0,70.0,67.8,65.0,97,82,61,0.00,40.00,11,7,25,0.00
2012-3-19,79.0,74.2,71.0,68.0,66.2,63.0,86,76,59,0.00,40.00,16,11,31,0.00
2012-3-20,75.0,63.9,57.0,67.0,59.1,-99.9,99,88,74,0.00,40.00,14,9,31,4.70
2012-3-21,65.0,56.8,52.0,57.0,53.6,50.0,99,90,70,0.00,40.00,12,5,27,2.70
2012-3-22,79.0,59.5,50.0,59.0,40.2,-99.9,98,64,40,0.00,40.00,10,-7,20,0.01
2012-3-23,83.0,65.5,52.0,62.0,53.8,46.0,99,73,28,0.00,40.00,7,4,14,0.00
2012-3-24,85.0,68.2,55.0,59.0,53.5,48.0,98,66,29,0.00,40.00,6,5,14,0.00
2012-3-25,87.0,68.1,53.0,65.0,53.4,49.0,97,66,28,0.00,40.00,7,4,13,0.00
2012-3-26,88.0,69.0,54.0,60.0,56.4,52.0,96,69,36,0.00,40.00,7,4,14,0.00
2012-3-27,82.0,68.8,56.0,65.0,58.4,54.0,97,73,41,0.00,40.00,8,4,16,0.00
2012-3-28,82.0,68.5,57.0,69.0,59.5,56.0,97,77,43,0.00,40.00,9,5,15,0.00
2012-3-29,78.0,66.3,60.0,69.0,64.0,59.0,98,93,63,0.00,40.00,7,3,14,0.26
2012-3-30,81.0,68.7,61.0,70.0,65.2,60.0,98,90,63,0.00,40.00,7,4,13,0.17
2012-3-31,86.0,72.4,64.0,70.0,65.8,63.0,98,83,51,0.00,40.00,9,4,15,0.01
2012-4-1,85.0,73.0,66.0,69.0,66.8,65.0,98,83,56,0.00,40.00,10,6,19,0.00
2012-4-2,76.0,69.0,64.0,72.0,66.7,63.0,98,93,72,0.00,40.00,9,5,50,0.54
2012-4-3,82.0,73.9,66.0,73.0,69.2,64.0,96,86,64,0.00,40.00,10,7,24,0.06
2012-4-4,79.0,70.4,62.0,71.0,65.6,61.0,98,86,64,0.00,40.00,9,4,32,0.21
2012-4-5,85.0,72.4,64.0,68.0,64.9,60.0,98,80,50,0.00,40.00,7,5,16,0.01
2012-4-6,85.0,67.5,54.0,60.0,55.9,52.0,97,72,35,0.00,40.00,7,4,13,0.01
2012-4-7,85.0,68.4,55.0,64.0,57.7,54.0,96,72,39,0.00,40.00,6,4,12,0.00
2012-4-8,85.0,69.9,57.0,67.0,60.7,56.0,97,76,48,0.00,40.00,6,4,12,0.00
2012-4-9,86.0,71.0,58.0,64.0,59.9,55.0,96,72,39,0.00,40.00,5,4,12,0.00
2012-4-10,84.0,71.5,59.0,67.0,62.1,58.0,97,76,44,0.00,40.00,5,3,10,0.00
2012-4-11,86.0,71.7,60.0,67.0,61.0,57.0,97,74,37,0.00,40.00,6,4,16,0.00
2012-4-12,79.0,67.6,60.0,65.0,61.6,58.0,98,83,58,0.00,40.00,8,5,17,0.07
2012-4-13,83.0,72.8,64.0,71.0,64.4,62.0,98,78,51,0.00,40.00,12,7,21,0.07
2012-4-14,83.0,72.5,65.0,71.0,62.9,-99.9,98,77,50,0.00,40.00,16,9,32,0.00
2012-4-15,82.0,76.8,73.0,71.0,68.5,66.0,86,76,62,0.00,40.00,17,10,31,0.00
2012-4-16,76.0,65.2,60.0,71.0,63.2,59.0,98,94,83,0.00,40.00,13,6,23,0.98
2012-4-17,78.0,66.1,57.0,68.0,61.4,54.0,98,87,61,0.00,40.00,9,6,20,0.04
2012-4-18,81.0,63.8,50.0,57.0,51.5,48.0,98,71,32,0.00,40.00,7,5,13,0.00
2012-4-19,82.0,65.8,50.0,58.0,54.1,49.0,97,71,38,0.00,40.00,6,4,12,0.00
2012-4-20,79.0,65.9,58.0,65.0,60.6,57.0,98,85,50,0.00,40.00,8,4,23,1.59
2012-4-21,73.0,59.6,53.0,60.0,52.4,49.0,98,80,48,0.00,40.00,12,8,24,1.81
2012-4-22,83.0,65.8,50.0,55.0,50.3,48.0,96,64,30,0.00,40.00,9,6,22,0.00
2012-4-23,75.0,61.9,49.0,51.0,45.5,43.0,90,58,33,0.00,40.00,9,6,17,0.00
2012-4-24,81.0,62.6,46.0,58.0,51.2,45.0,97,72,35,0.00,40.00,9,5,19,0.00
2012-4-25,85.0,70.7,56.0,65.0,60.1,55.0,97,73,39,0.00,40.00,12,7,23,0.00
2012-4-26,85.0,74.5,65.0,69.0,65.3,63.0,97,76,51,0.00,40.00,12,8,27,0.00
2012-4-27,82.0,72.9,65.0,69.0,65.6,64.0,97,80,59,0.00,40.00,13,7,25,0.00
2012-4-28,85.0,72.6,64.0,70.0,63.0,-99.9,97,78,50,0.00,40.00,12,6,20,0.00
2012-4-29,85.0,74.6,65.0,70.0,66.9,63.0,97,79,55,0.00,40.00,10,6,19,0.00
2012-4-30,87.0,76.0,68.0,72.0,68.2,65.0,97,79,52,0.00,40.00,9,6,18,0.00
2012-5-1,87.0,75.3,66.0,73.0,67.3,64.0,97,79,49,0.00,40.00,9,5,19,0.00
2012-5-2,91.0,76.8,67.0,74.0,69.4,66.0,97,80,50,0.00,40.00,6,4,12,0.01
2012-5-3,89.0,78.3,70.0,73.0,70.1,69.0,97,78,54,0.00,40.00,7,4,12,0.01
2012-5-4,88.0,76.6,67.0,73.0,68.5,66.0,97,79,50,0.00,40.00,9,5,17,0.00
2012-5-5,89.0,77.5,69.0,74.0,67.7,-99.9,97,77,49,0.00,40.00,10,5,19,0.00
2012-5-6,88.0,77.1,69.0,75.0,70.6,68.0,97,82,56,0.00,40.00,8,4,14,0.00
2012-5-7,91.0,78.5,69.0,73.0,68.0,61.0,97,74,37,0.00,40.00,6,4,12,0.00
2012-5-8,85.0,75.2,65.0,70.0,66.8,62.0,95,77,55,0.00,40.00,8,5,20,0.00
2012-5-9,85.0,74.4,66.0,68.0,64.5,60.0,96,74,46,0.00,40.00,9,5,15,0.00
2012-5-10,85.0,72.3,59.0,61.0,58.0,53.0,93,64,37,0.00,40.00,7,5,16,0.00
2012-5-11,74.0,67.9,63.0,68.0,63.7,59.0,97,87,71,0.00,40.00,17,7,31,1.70
2012-5-12,77.0,68.6,65.0,68.0,63.3,-99.9,98,88,67,0.00,40.00,8,5,20,1.22
2012-5-13,81.0,70.1,62.0,65.0,62.7,60.0,96,79,51,0.00,40.00,6,4,12,0.85
2012-5-14,86.0,71.4,59.0,67.0,59.3,54.0,97,71,35,0.00,40.00,6,4,11,0.00
2012-5-15,81.0,68.7,59.0,69.0,62.5,58.0,96,82,52,0.00,40.00,8,4,16,0.00
2012-5-16,85.0,70.8,62.0,71.0,64.3,60.0,97,82,48,0.00,40.00,8,4,15,0.56
2012-5-17,90.0,74.6,61.0,70.0,62.3,54.0,97,71,33,0.00,40.00,5,3,11,0.01
2012-5-18,88.0,74.5,61.0,70.0,61.8,57.0,97,70,36,0.00,40.00,9,4,15,0.00
2012-5-19,89.0,73.3,61.0,70.0,60.9,-99.9,96,72,38,0.00,40.00,8,4,15,0.00
2012-5-20,90.0,75.5,63.0,72.0,65.8,62.0,96,75,41,0.00,40.00,7,4,11,0.00
2012-5-21,92.0,78.6,68.0,72.0,67.1,60.0,94,71,38,0.00,40.00,7,4,13,0.00
2012-5-22,92.0,79.4,67.0,69.0,66.0,59.0,95,68,35,0.00,40.00,6,4,12,0.00
2012-5-23,89.0,76.7,66.0,72.0,66.4,63.0,96,74,42,0.00,40.00,10,5,20,0.00
2012-5-24,87.0,76.7,67.0,71.0,67.9,66.0,96,76,51,0.00,40.00,13,8,28,0.00
2012-5-25,90.0,78.8,70.0,73.0,70.2,69.0,96,77,50,0.00,40.00,10,6,20,0.00
2012-5-26,90.0,77.6,67.0,73.0,69.3,66.0,97,78,50,0.00,40.00,8,4,14,0.00
2012-5-27,92.0,78.6,68.0,76.0,68.7,62.0,97,75,40,0.00,40.00,9,4,16,0.00
2012-5-28,92.0,78.8,66.0,74.0,65.8,58.0,96,69,33,0.00,40.00,7,4,14,0.00
2012-5-29,94.0,79.5,67.0,74.0,68.4,64.0,97,73,38,0.00,40.00,8,5,17,0.00
2012-5-30,92.0,81.1,72.0,75.0,71.4,68.0,96,75,46,0.00,40.00,7,4,14,0.00
2012-5-31,84.0,74.5,67.0,75.0,69.8,61.0,96,87,61,0.00,40.00,8,4,33,0.46
2012-6-1,90.0,75.8,64.0,69.0,60.6,53.0,97,65,31,0.00,40.00,8,4,13,0.46
2012-6-2,91.0,75.7,61.0,71.0,62.8,-99.9,91,70,42,0.00,40.00,9,6,19,0.00
2012-6-3,92.0,79.4,68.0,75.0,70.1,67.0,97,76,47,0.00,40.00,9,5,17,0.00
2012-6-4,93.0,80.3,69.0,74.0,70.4,67.0,96,75,43,0.00,40.00,8,4,14,0.00
2012-6-5,98.0,82.8,72.0,75.0,72.0,68.0,97,73,41,0.00,40.00,6,4,12,0.00
2012-6-6,95.0,77.8,70.0,76.0,71.5,67.0,97,84,46,0.00,40.00,9,4,33,0.59
2012-6-7,93.0,78.0,67.0,73.0,69.7,66.0,97,78,52,0.00,40.00,9,5,20,0.06
2012-6-8,93.0,77.1,69.0,71.0,69.3,68.0,97,80,47,0.00,40.00,8,4,22,0.55
2012-6-9,91.0,77.4,69.0,74.0,69.0,-99.9,97,82,53,0.00,40.00,6,4,12,0.50
2012-6-10,94.0,81.4,71.0,76.0,72.1,69.0,97,76,45,0.00,40.00,7,4,15,0.00
2012-6-11,94.0,82.7,73.0,78.0,74.3,72.0,97,78,53,0.00,40.00,10,6,20,0.00
2012-6-12,81.0,74.8,71.0,76.0,72.7,69.0,96,93,85,0.00,40.00,12,4,24,0.14
2012-6-13,93.0,79.6,69.0,75.0,70.9,68.0,97,78,48,0.00,40.00,8,4,16,0.01
2012-6-14,85.0,76.2,72.0,76.0,72.7,66.0,97,89,69,0.00,40.00,13,5,24,0.79
2012-6-15,92.0,78.2,71.0,77.0,71.7,68.0,97,82,53,0.00,40.00,10,4,20,0.01
2012-6-16,90.0,75.7,71.0,73.0,68.1,-99.9,97,83,52,0.00,40.00,6,4,12,0.00
2012-6-17,91.0,79.4,69.0,71.0,67.4,62.0,97,71,40,0.00,40.00,6,4,13,0.00
2012-6-18,86.0,76.0,71.0,75.0,71.6,69.0,95,87,65,0.00,40.00,9,5,19,0.00
2012-6-19,84.0,75.6,72.0,77.0,72.3,65.0,97,90,66,0.00,40.00,8,5,21,0.58
2012-6-20,88.0,77.8,69.0,75.0,70.1,68.0,97,79,53,0.00,40.00,8,5,14,0.21
2012-6-21,93.0,79.1,68.0,75.0,69.0,63.0,96,74,44,0.00,40.00,8,4,15,0.00
2012-6-22,95.0,81.2,69.0,72.0,68.2,64.0,95,69,39,0.00,40.00,9,5,17,0.00
2012-6-23,95.0,81.8,69.0,75.0,69.9,66.0,92,71,41,0.00,40.00,8,4,15,0.00
2012-6-24,100.0,85.4,72.0,74.0,70.0,64.0,95,65,32,0.00,40.00,7,5,16,0.00
2012-6-25,102.0,86.4,73.0,74.0,67.1,59.0,86,58,25,0.00,40.00,8,5,16,0.00
2012-6-26,103.0,87.2,75.0,76.0,70.9,68.0,82,62,34,0.00,40.00,6,4,12,0.00
2012-6-27,100.0,84.9,70.0,73.0,67.2,62.0,84,60,30,0.00,40.00,6,4,13,0.00
2012-6-28,98.0,83.3,74.0,80.0,72.5,67.0,96,74,38,0.00,40.00,7,4,14,0.00
2012-6-29,96.0,83.0,72.0,78.0,71.2,67.0,96,72,42,0.00,40.00,8,4,15,0.00
2012-6-30,89.0,78.9,71.0,75.0,72.2,69.0,95,81,63,0.00,40.00,7,4,14,0.00
2012-7-1,93.0,78.9,72.0,76.0,70.9,63.0,96,79,52,0.00,40.00,9,4,24,0.00
2012-7-2,96.0,81.3,69.0,76.0,69.1,63.0,96,71,34,0.00,40.00,8,4,16,0.00
2012-7-3,94.0,81.5,73.0,76.0,71.5,67.0,93,74,41,0.00,40.00,7,4,12,0.00
2012-7-4,97.0,82.0,70.0,76.0,70.5,65.0,96,72,39,0.00,40.00,8,4,19,0.00
2012-7-5,97.0,83.0,71.0,76.0,70.7,66.0,96,70,36,0.00,40.00,7,4,13,0.00
2012-7-6,97.0,81.8,72.0,77.0,71.1,65.0,95,73,39,0.00,40.00,9,4,20,0.00
2012-7-7,91.0,75.5,71.0,76.0,71.4,68.0,96,88,52,0.00,40.00,9,3,24,3.08
2012-7-8,82.0,75.8,71.0,76.0,72.1,70.0,97,89,70,0.00,40.00,5,3,12,0.10
2012-7-9,85.0,75.0,72.0,77.0,72.9,71.0,96,94,73,0.00,40.00,8,3,20,1.10
2012-7-10,80.0,74.9,72.0,76.0,72.0,71.0,97,91,78,0.00,40.00,9,4,27,1.55
2012-7-11,82.0,75.3,72.0,75.0,71.7,70.0,97,89,73,0.00,40.00,8,4,16,0.40
2012-7-12,83.0,74.8,71.0,73.0,71.6,69.0,97,91,65,0.00,40.00,8,4,19,1.10
2012-7-13,82.0,74.0,70.0,73.0,71.0,69.0,97,91,75,0.00,40.00,6,3,16,1.28
2012-7-14,89.0,77.9,72.0,75.0,72.2,70.0,97,84,58,0.00,40.00,5,3,12,0.71
2012-7-15,90.0,79.9,72.0,78.0,72.6,68.0,97,81,55,0.00,40.00,7,3,15,0.00
2012-7-16,90.0,77.8,72.0,78.0,73.9,69.0,96,89,64,0.00,40.00,10,3,15,0.47
2012-7-17,94.0,77.9,72.0,77.0,73.4,66.0,97,88,51,0.00,40.00,13,3,25,1.06
2012-7-18,95.0,81.9,72.0,82.0,74.1,71.0,97,80,54,0.00,40.00,7,3,10,0.04
2012-7-19,96.0,83.5,73.0,78.0,74.2,70.0,96,76,47,0.00,40.00,7,4,12,0.00
2012-7-20,96.0,84.8,76.0,78.0,74.9,67.0,94,75,50,0.00,40.00,9,6,24,0.00
2012-7-21,94.0,79.9,72.0,76.0,72.1,69.0,95,78,57,0.00,40.00,8,5,16,0.00
2012-7-22,90.0,78.2,73.0,76.0,72.6,71.0,95,85,59,0.00,40.00,6,4,14,0.01
2012-7-23,91.0,81.4,74.0,77.0,73.5,67.0,96,79,46,0.00,40.00,7,4,13,0.02
2012-7-24,95.0,82.5,73.0,77.0,73.7,71.0,96,77,47,0.00,40.00,7,4,16,0.01
2012-7-25,90.0,81.2,74.0,78.0,74.5,72.0,96,82,56,0.00,40.00,8,4,20,0.00
2012-7-26,89.0,80.9,74.0,80.0,75.7,70.0,96,85,63,0.00,40.00,6,4,26,0.25
2012-7-27,96.0,83.4,73.0,78.0,73.6,69.0,96,76,43,0.00,40.00,6,4,12,0.02
2012-7-28,97.0,84.6,76.0,77.0,74.6,72.0,96,75,47,0.00,40.00,7,4,18,0.24
2012-7-29,98.0,84.5,73.0,79.0,74.8,71.0,96,76,46,0.00,40.00,6,4,12,0.24
2012-7-30,96.0,84.8,75.0,78.0,74.5,71.0,95,74,48,0.00,40.00,6,4,14,0.00
2012-7-31,96.0,85.3,76.0,78.0,74.9,72.0,96,74,47,0.00,40.00,8,4,16,0.00
2012-8-1,94.0,82.9,75.0,77.0,75.1,71.0,96,80,48,0.00,40.00,8,5,16,0.00
2012-8-2,96.0,87.7,78.0,77.0,75.3,73.0,93,68,49,0.00,40.00,7,6,16,0.00
2012-8-3,96.0,84.6,75.0,77.0,74.2,71.0,96,74,45,0.00,40.00,8,5,15,0.00
2012-8-4,96.0,83.3,74.0,78.0,73.9,72.0,95,76,46,0.00,40.00,7,4,16,0.00
2012-8-5,95.0,84.0,74.0,79.0,74.2,70.0,96,76,44,0.00,40.00,7,3,14,0.00
2012-8-6,96.0,82.8,74.0,77.0,74.6,72.0,93,78,52,0.00,40.00,7,4,17,0.00
2012-8-7,96.0,82.0,72.0,77.0,72.5,70.0,96,76,48,0.00,40.00,8,3,16,0.00
2012-8-8,94.0,81.5,72.0,78.0,73.7,69.0,95,79,50,0.00,40.00,8,3,13,0.01
2012-8-9,94.0,82.8,73.0,78.0,74.2,72.0,96,78,49,0.00,40.00,7,4,14,0.01
2012-8-10,97.0,82.4,76.0,78.0,74.1,70.0,93,77,51,0.00,40.00,9,5,20,0.00
2012-8-11,99.0,82.8,74.0,76.0,71.1,-99.9,96,74,36,0.00,40.00,5,3,13,0.00
2012-8-12,96.0,83.1,75.0,79.0,74.4,69.0,95,78,42,0.00,40.00,8,4,15,0.00
2012-8-13,96.0,85.1,75.0,77.0,74.0,71.0,95,72,44,0.00,40.00,9,5,17,0.00
2012-8-14,97.0,84.4,76.0,77.0,74.6,71.0,95,76,45,0.00,40.00,9,5,16,0.00
2012-8-15,95.0,82.3,74.0,78.0,73.8,69.0,96,78,45,0.00,40.00,7,4,14,0.00
2012-8-16,98.0,83.4,76.0,78.0,74.4,72.0,95,77,44,0.00,40.00,10,4,18,0.00
2012-8-17,95.0,82.1,74.0,79.0,73.8,68.0,96,78,53,0.00,40.00,8,4,14,0.00
2012-8-18,92.0,78.2,73.0,81.0,73.3,69.0,96,86,58,0.00,40.00,11,4,25,0.35
2012-8-19,90.0,77.9,72.0,75.0,72.2,69.0,96,84,55,0.00,40.00,7,4,15,0.12
2012-8-20,94.0,80.5,70.0,75.0,68.6,63.0,96,72,38,0.00,40.00,8,4,16,0.01
2012-8-21,91.0,76.9,68.0,72.0,68.3,66.0,95,77,45,0.00,40.00,9,5,15,0.00
2012-8-22,93.0,77.9,72.0,70.0,67.4,62.0,89,72,39,0.00,40.00,8,5,16,0.00
2012-8-23,91.0,76.8,68.0,76.0,70.2,67.0,96,82,48,0.00,40.00,7,4,18,0.00
2012-8-24,81.0,75.1,72.0,77.0,72.5,70.0,96,92,78,0.00,40.00,8,5,17,0.63
2012-8-25,85.0,76.3,72.0,75.0,72.0,70.0,97,87,65,0.00,40.00,9,5,21,0.02
2012-8-26,94.0,80.2,71.0,77.0,71.1,67.0,96,78,41,0.00,40.00,7,4,12,0.02
2012-8-27,94.0,81.4,72.0,77.0,72.5,69.0,96,77,45,0.00,40.00,7,4,15,0.00
2012-8-28,97.0,82.8,73.0,75.0,69.8,62.0,96,69,35,0.00,40.00,12,7,27,0.00
2012-8-29,89.0,81.6,74.0,73.0,69.8,66.0,89,68,55,0.00,40.00,16,10,32,0.01
2012-8-30,82.0,78.9,75.0,75.0,71.2,67.0,93,78,63,0.00,40.00,11,8,25,0.31
2012-8-31,92.0,82.6,73.0,80.0,75.3,71.0,96,80,56,0.00,40.00,13,6,36,1.53
2012-9-1,92.0,80.1,74.0,78.0,74.4,68.0,96,85,50,0.00,40.00,13,5,26,0.03
2012-9-2,95.0,82.2,73.0,79.0,74.7,72.0,96,80,49,0.00,40.00,10,5,17,0.03
2012-9-3,94.0,83.7,75.0,78.0,74.3,70.0,96,77,46,0.00,40.00,8,5,16,0.00
2012-9-4,95.0,82.8,74.0,77.0,73.5,70.0,96,77,47,0.00,40.00,11,5,18,0.00
2012-9-5,96.0,83.3,75.0,76.0,73.5,69.0,96,75,45,0.00,40.00,7,5,16,0.00
2012-9-6,97.0,83.6,74.0,78.0,73.4,69.0,96,75,43,0.00,40.00,8,5,15,0.00
2012-9-7,96.0,83.5,74.0,78.0,73.4,68.0,96,75,42,0.00,40.00,7,4,12,0.00
2012-9-8,84.0,77.1,68.0,75.0,71.2,66.0,95,83,60,0.00,40.00,10,5,22,0.00
2012-9-9,88.0,70.4,60.0,66.0,59.8,54.0,96,74,32,0.00,40.00,9,5,14,0.00
2012-9-10,90.0,71.6,58.0,66.0,56.5,52.0,92,65,29,0.00,40.00,8,4,15,0.00
2012-9-11,90.0,73.2,58.0,68.0,59.1,55.0,94,67,32,0.00,40.00,8,4,15,0.00
2012-9-12,88.0,75.3,67.0,76.0,68.6,62.0,95,81,54,0.00,40.00,9,5,20,0.67
2012-9-13,91.0,76.8,69.0,77.0,70.2,68.0,96,82,51,0.00,40.00,10,5,23,0.08
2012-9-14,91.0,77.6,68.0,73.0,69.3,66.0,96,79,45,0.00,40.00,8,4,20,1.73
2012-9-15,89.0,76.8,70.0,78.0,70.5,67.0,96,83,48,0.00,40.00,6,4,16,1.87
2012-9-16,89.0,77.5,69.0,73.0,68.9,63.0,96,78,42,0.00,40.00,6,4,11,0.01
2012-9-17,80.0,73.4,69.0,72.0,69.0,66.0,96,87,67,0.00,40.00,8,4,17,0.22
2012-9-18,88.0,73.9,66.0,69.0,67.3,65.0,96,81,49,0.00,40.00,9,5,16,0.03
2012-9-19,85.0,71.1,61.0,67.0,56.8,48.0,91,65,29,0.00,40.00,8,5,14,0.01
2012-9-20,88.0,68.4,53.0,60.0,54.7,52.0,97,68,30,0.00,40.00,5,4,10,0.00
2012-9-21,88.0,70.0,55.0,72.0,61.9,53.0,97,78,43,0.00,40.00,5,4,10,0.00
2012-9-22,93.0,75.4,63.0,74.0,65.3,-99.9,99,78,43,0.00,40.00,5,3,9,0.00
2012-9-23,96.0,78.4,65.0,75.0,68.2,65.0,99,76,36,0.00,40.00,5,3,8,0.00
2012-9-24,93.0,77.6,66.0,76.0,69.9,66.0,99,80,49,0.00,40.00,6,4,11,0.00
2012-9-25,91.0,77.7,68.0,78.0,70.1,67.0,100,81,46,0.00,40.00,7,4,17,0.00
2012-9-26,92.0,76.4,66.0,74.0,67.8,63.0,100,79,39,0.00,40.00,7,4,13,0.00
2012-9-27,90.0,75.8,66.0,73.0,68.3,65.0,99,80,45,0.00,40.00,5,3,9,0.00
2012-9-28,94.0,75.8,67.0,76.0,70.9,66.0,100,87,46,0.00,40.00,6,3,17,1.52
2012-9-29,76.0,73.6,72.0,75.0,73.2,72.0,100,99,92,0.00,40.00,6,4,14,0.90
2012-9-30,81.0,72.0,63.0,76.0,69.5,59.0,100,92,75,0.00,40.00,11,8,22,0.79
2012-10-1,83.0,68.9,61.0,61.0,58.0,51.0,92,71,39,0.00,40.00,11,7,23,0.01
2012-10-2,83.0,66.7,55.0,66.0,56.9,52.0,99,76,36,0.00,40.00,7,3,14,0.00
2012-10-3,86.0,67.9,55.0,66.0,58.9,55.0,99,78,36,0.00,40.00,6,3,12,0.00
2012-10-4,89.0,72.0,59.0,73.0,63.7,59.0,99,79,42,0.00,40.00,7,5,15,0.00
2012-10-5,89.0,72.4,61.0,72.0,66.2,61.0,100,84,50,0.00,40.00,7,4,13,0.00
2012-10-6,80.0,68.1,57.0,72.0,64.6,53.0,100,89,71,0.00,40.00,11,6,21,0.00
2012-10-7,68.0,57.4,51.0,52.0,49.4,45.0,88,76,56,0.00,40.00,10,8,20,0.00
2012-10-8,71.0,59.1,52.0,52.0,50.7,48.0,90,75,51,0.00,40.00,7,5,16,0.00
2012-10-9,83.0,63.7,47.0,65.0,56.3,46.0,99,80,51,0.00,40.00,6,4,13,0.00
2012-10-10,90.0,74.8,63.0,72.0,67.8,62.0,99,82,49,0.00,40.00,5,3,10,0.00
2012-10-11,89.0,76.2,67.0,73.0,66.9,62.0,99,77,44,0.00,40.00,9,5,17,0.00
2012-10-12,88.0,73.1,62.0,73.0,67.8,62.0,99,85,54,0.00,40.00,5,4,11,0.00
2012-10-13,87.0,77.3,69.0,73.0,69.7,64.0,100,80,47,0.00,40.00,11,7,24,0.00
2012-10-14,88.0,76.4,71.0,75.0,70.9,68.0,98,85,56,0.00,40.00,8,5,19,0.02
2012-10-15,83.0,69.6,60.0,70.0,59.8,53.0,99,75,36,0.00,40.00,7,5,12,0.02
2012-10-16,78.0,64.2,52.0,67.0,58.9,51.0,98,85,56,0.00,40.00,5,4,12,0.10
2012-10-17,88.0,70.4,58.0,75.0,65.7,58.0,100,87,58,0.00,40.00,9,5,20,0.10
2012-10-18,79.0,70.5,58.0,75.0,59.8,48.0,99,73,34,0.00,40.00,10,6,18,0.01
2012-10-19,83.0,63.0,46.0,57.0,45.6,35.0,97,62,19,0.00,40.00,10,5,20,0.00
2012-10-20,86.0,64.1,45.0,60.0,49.0,41.0,97,67,21,0.00,40.00,10,5,20,0.00
2012-10-21,87.0,71.7,62.0,71.0,64.6,60.0,98,81,44,0.00,40.00,9,6,19,0.00
2012-10-22,87.0,72.8,63.0,72.0,65.6,63.0,99,81,48,0.00,40.00,9,6,16,0.00
2012-10-23,88.0,72.6,61.0,72.0,65.0,60.0,99,81,40,0.00,40.00,6,4,12,0.00
2012-10-24,86.0,72.6,65.0,73.0,67.9,65.0,100,87,54,0.00,40.00,9,4,16,0.00
2012-10-25,86.0,74.0,67.0,74.0,68.7,66.0,99,85,63,0.00,40.00,9,5,20,0.00
2012-10-26,68.0,61.0,51.0,68.0,59.1,48.0,99,93,86,0.00,40.00,11,6,21,0.02
2012-10-27,65.0,52.8,44.0,48.0,40.8,34.0,97,67,34,0.00,40.00,12,7,24,0.01
2012-10-28,69.0,50.2,37.0,43.0,35.8,26.0,95,65,23,0.00,40.00,11,6,21,0.00
2012-10-29,71.0,51.5,37.0,46.0,36.8,32.0,92,64,26,0.00,40.00,8,5,17,0.00
2012-10-30,74.0,52.5,35.0,49.0,40.1,34.0,96,70,26,0.00,40.00,7,4,15,0.00
2012-10-31,83.0,62.8,45.0,62.0,53.8,44.0,98,77,41,0.00,40.00,8,4,17,0.00
2012-11-1,88.0,68.1,53.0,67.0,58.9,53.0,99,77,37,0.00,40.00,6,4,13,0.00
2012-11-2,87.0,72.9,64.0,71.0,64.4,57.0,99,79,38,0.00,40.00,8,5,17,0.00
2012-11-3,87.0,70.1,60.0,69.0,62.1,57.0,99,79,40,0.00,40.00,8,4,14,0.00
2012-11-4,83.0,68.5,62.0,70.0,62.4,61.0,97,83,50,0.00,40.00,6,3,10,0.02
2012-11-5,82.0,64.8,55.0,67.0,60.7,54.0,99,89,47,0.00,40.00,6,4,40,0.38
2012-11-6,73.0,56.3,46.0,54.0,46.9,42.0,99,75,35,0.00,40.00,7,5,15,0.38
2012-11-7,79.0,58.2,45.0,53.0,44.3,38.0,97,68,24,0.00,40.00,8,4,17,0.00
2012-11-8,76.0,57.3,43.0,50.0,44.9,40.0,91,68,33,0.00,40.00,7,5,13,0.00
2012-11-9,80.0,62.3,48.0,60.0,54.2,47.0,98,79,40,0.00,40.00,10,6,20,0.00
2012-11-10,80.0,68.0,55.0,65.0,59.8,54.0,99,78,49,0.00,40.00,11,7,22,0.00
2012-11-11,76.0,71.6,66.0,71.0,67.4,64.0,98,87,78,0.00,40.00,12,8,24,0.00
2012-11-12,66.0,55.0,42.0,65.0,45.8,35.0,98,74,35,0.00,40.00,13,7,25,0.06
2012-11-13,63.0,46.1,35.0,37.0,33.2,29.0,90,65,30,0.00,40.00,9,6,20,0.00
2012-11-14,68.0,48.5,39.0,38.0,33.1,-99.9,89,61,25,0.00,40.00,7,5,14,0.00
2012-11-15,69.0,47.9,34.0,41.0,33.7,27.0,93,64,21,0.00,40.00,6,5,13,0.00
2012-11-16,69.0,49.8,37.0,45.0,38.7,35.0,94,70,33,0.00,40.00,8,6,16,0.00
2012-11-17,73.0,49.4,36.0,44.0,37.0,34.0,94,69,24,0.00,40.00,7,4,12,0.00
2012-11-18,74.0,51.8,37.0,45.0,38.1,34.0,92,65,27,0.00,40.00,5,4,10,0.00
2012-11-19,76.0,54.8,39.0,48.0,41.4,37.0,93,67,26,0.00,40.00,5,3,8,0.00
2012-11-20,78.0,58.4,43.0,58.0,48.5,41.0,98,74,37,0.00,40.00,6,3,10,0.00
2012-11-21,81.0,59.0,47.0,62.0,49.2,46.0,97,74,30,0.00,40.00,7,5,14,0.00
2012-11-22,78.0,59.3,43.0,56.0,48.1,42.0,96,71,36,0.00,40.00,7,4,13,0.00
2012-11-23,64.0,57.4,51.0,62.0,55.4,49.0,98,93,83,0.00,40.00,9,4,19,0.42
2012-11-24,62.0,47.0,36.0,49.0,36.6,31.0,93,71,34,0.00,40.00,9,5,18,0.02
2012-11-25,72.0,49.8,32.0,55.0,42.9,31.0,97,81,45,0.00,40.00,8,5,14,0.00
2012-11-26,62.0,58.0,56.0,62.0,57.4,55.0,99,98,92,0.00,40.00,6,4,12,0.00
2012-11-27,65.0,55.5,45.0,61.0,50.8,43.0,97,85,63,0.00,40.00,10,6,20,0.01
2012-11-28,66.0,47.1,36.0,43.0,39.3,35.0,98,79,36,0.00,40.00,7,4,12,0.01
2012-11-29,71.0,49.1,35.0,45.0,40.0,34.0,97,75,36,0.00,40.00,5,4,11,0.00
2012-11-30,72.0,58.3,43.0,61.0,53.0,41.0,97,84,64,0.00,40.00,6,4,12,0.00
2012-12-1,80.0,67.7,59.0,66.0,62.4,58.0,98,85,59,0.00,40.00,8,6,17,0.00
2012-12-2,82.0,69.6,64.0,68.0,65.2,62.0,98,88,55,0.00,40.00,9,5,16,0.00
2012-12-3,79.0,69.4,64.0,68.0,65.6,63.0,99,88,69,0.00,40.00,10,6,22,0.00
2012-12-4,78.0,67.8,61.0,70.0,65.4,61.0,99,92,68,0.00,40.00,9,4,19,0.13
2012-12-5,67.0,61.5,56.0,62.0,59.6,56.0,99,94,78,0.00,40.00,7,4,13,0.01
2012-12-6,67.0,54.4,49.0,58.0,50.8,-99.9,100,93,74,0.00,40.00,4,2,8,0.01
2012-12-7,76.0,62.4,51.0,65.0,58.6,51.0,99,89,60,0.00,40.00,6,4,14,0.01
2012-12-8,69.0,65.1,64.0,68.0,64.4,63.0,99,98,93,0.00,40.00,5,4,11,0.01
2012-12-9,78.0,68.9,63.0,71.0,66.9,63.0,100,94,68,0.00,40.00,8,5,16,0.73
2012-12-10,56.0,44.3,36.0,36.0,33.8,32.0,89,69,40,0.00,40.00,8,5,21,1.23
2012-12-11,55.0,38.1,30.0,34.0,30.0,26.0,91,74,33,0.00,40.00,6,5,16,0.00
2012-12-12,60.0,42.4,32.0,35.0,28.4,20.0,89,64,21,0.00,40.00,7,5,13,0.00
2012-12-13,66.0,42.0,29.0,37.0,29.6,25.0,92,70,21,0.00,40.00,6,4,11,0.00
2012-12-14,62.0,52.5,36.0,58.0,44.4,33.0,90,75,56,0.00,40.00,8,5,16,0.00
2012-12-15,78.0,67.7,59.0,68.0,63.6,58.0,98,88,69,0.00,40.00,10,6,19,0.00
2012-12-16,71.0,64.5,61.0,69.0,63.6,61.0,99,97,92,0.00,40.00,9,4,18,1.77
2012-12-17,72.0,59.8,45.0,62.0,49.3,36.0,100,75,27,0.00,40.00,10,5,22,0.07
2012-12-18,80.0,56.6,38.0,56.0,46.7,37.0,98,76,29,0.00,40.00,8,6,17,0.00
2012-12-19,79.0,66.8,54.0,70.0,62.8,53.0,99,88,66,0.00,40.00,14,8,30,0.00
2012-12-20,74.0,53.3,35.0,70.0,35.3,17.0,91,53,28,0.00,40.00,18,10,42,0.05
2012-12-21,65.0,43.8,30.0,36.0,25.1,18.0,84,55,17,0.00,40.00,6,4,12,0.02
2012-12-22,67.0,48.0,30.0,46.0,36.2,28.0,96,70,25,0.00,40.00,8,4,17,0.00
2012-12-23,71.0,62.8,54.0,64.0,57.9,46.0,95,84,73,0.00,40.00,10,5,19,0.10
2012-12-24,76.0,64.3,53.0,65.0,55.1,44.0,99,76,32,0.00,40.00,6,4,17,0.10
2012-12-25,72.0,56.9,38.0,68.0,51.1,31.0,99,82,47,0.00,40.00,18,10,54,0.85
2012-12-26,46.0,37.7,32.0,31.0,29.4,28.0,89,73,51,0.00,40.00,9,6,30,0.08
2012-12-27,50.0,40.0,28.0,43.0,34.0,27.0,95,81,54,0.00,40.00,7,5,15,0.00
2012-12-28,60.0,50.8,44.0,60.0,48.1,37.0,99,90,75,0.00,40.00,11,6,27,1.30
2012-12-29,50.0,40.9,32.0,37.0,26.9,19.0,87,61,30,0.00,40.00,10,6,25,0.02
2012-12-30,49.0,37.8,28.0,34.0,27.4,23.0,87,68,35,0.00,40.00,8,4,16,0.00
2012-12-31,61.0,51.6,40.0,60.0,46.7,33.0,98,84,65,0.00,40.00,7,5,15,0.10
2013-1-1,64.0,53.9,47.0,64.0,52.3,43.0,99,95,85,0.00,40.00,9,7,22,2.49